sat.trackr.live / text

‹ back to catalog

STARLINK-37892

NORAD 69485 · 2026-131H

PAYLOAD ACTIVE UNKNOWN

§ Identity

Operator
Country
US
Launch date
2026-06-11
Launch site
AFWTR
Launch vehicle
Mass (kg)
RCS (m²)

Purposes: comms

External: N2YO · Heavens-Above · Gunter

§ Orbital elements

Epoch: 2026-09-20T00:42:03.414816Z

Period
93.91 min
Inclination
97.2836°
Eccentricity
0.0001364
Mean motion
15.33455671 rev/d
Perigee alt
464.6 km
Apogee alt
466.4 km
Semi-major
6,843.6 km
B*
3.7747e-4
RAAN
283.8754°
Arg perigee
105.5630°
Mean anomaly
254.5763°
Rev number
1,682

§ Raw data

STARLINK-378921 69485U 26131H   26263.02920619  .00012135  00000+0  37747-3 0  99952 69485  97.2836 283.8754 0001364 105.5630 254.5763 15.33455671 16829

JSON: /api/v1/satellites/69485 · /tle

For live sub-satellite position, see the globe view (requires WebGL).

§ Visibility from observer

Set your observer location to see the next 7 days of passes ≥ 10°. The values pass through the URL so the page stays shareable.

No JS? Fill the form by hand. The geolocation button needs JavaScript.